Poplar Bluff, MO

9:37 AM CDT on October 01, 2016 (GMT -0500)
Poplar Bluff Municipal

Weather History for KPOF - December, 2013

Change the Weather History Date:

Sunday, December 1, 2013

  Actual Average Record
Temperature  
Mean Temperature 48 °F -  
Max Temperature 59 °F 52 °F 71 °F (1922)
Min Temperature 37 °F 32 °F 13 °F (1924)
Degree Days  
Heating Degree Days 17    
Moisture  
Dew Point 37 °F    
Average Humidity 73    
Maximum Humidity 86    
Minimum Humidity 53    
Precipitation  
Precipitation 0.00 in - - ()
Sea Level Pressure  
Sea Level Pressure 30.02 in    
Wind  
Wind Speed 3 mph (SSE)    
Max Wind Speed 7 mph    
Max Gust Speed -    
Visibility 7 miles    
Events Fog    
Averages and records for this station are not official NWS values.
T = Trace of Precipitation, MM = Missing Value Source: NWS Daily Summary

Daily Weather History Graph

Daily Weather History Graph

Search for Another Location

Airport or City:

Trip Planner

Search our weather history database for the weather conditions in past years. The results will help you decide how hot, cold, wet, or windy it might be!

Date:

Astronomy

Dec. 01, 2013 Rise Set
Actual Time 6:55 AM CST 4:45 PM CST
Civil Twilight 6:27 AM CST 5:13 PM CST
Nautical Twilight 5:55 AM CST 5:45 PM CST
Astronomical Twilight 5:23 AM CST 6:16 PM CST
Moon 5:15 AM CST 3:53 PM CST
Length of Visible Light 10h 46m
Length of Day
9h 49m
Waning Crescent, 2% of the Moon is Illuminated
Dec 1
Waning Crescent
Dec 2
New
Dec 9
First Quarter
Dec 17
Full
Dec 25
Last Quarter

Hourly Weather History & Observations

Time (CST) Temp. Windchill Dew Point Humidity Pressure Visibility Wind Dir Wind Speed Gust Speed Precip Events Conditions
12:53 AM 37.0 °F 32.4 °F 30.0 °F 76% 30.18 in 10.0 mi SSW 5.8 mph - N/A   Mostly Cloudy
1:53 AM 42.1 °F 39.2 °F 33.1 °F 70% 30.17 in 10.0 mi SSW 4.6 mph - N/A   Overcast
2:53 AM 43.0 °F 41.3 °F 34.0 °F 71% 30.16 in 10.0 mi SSW 3.5 mph - N/A   Overcast
3:53 AM 44.1 °F - 35.1 °F 71% 30.14 in 10.0 mi Calm Calm - N/A   Overcast
4:53 AM 45.0 °F - 35.1 °F 68% 30.14 in 10.0 mi Calm Calm - N/A   Overcast
5:53 AM 45.0 °F - 35.1 °F 68% 30.15 in 10.0 mi Calm Calm - N/A   Overcast
6:53 AM 45.0 °F - 35.1 °F 68% 30.15 in 10.0 mi Calm Calm - N/A   Overcast
7:53 AM 45.0 °F - 37.9 °F 76% 30.15 in 10.0 mi Calm Calm - N/A   Overcast
8:53 AM 46.9 °F - 37.9 °F 71% 30.14 in 10.0 mi Calm Calm - N/A   Overcast
9:53 AM 48.9 °F - 37.0 °F 64% 30.15 in 10.0 mi SSW 6.9 mph - N/A   Overcast
10:53 AM 53.1 °F - 37.9 °F 57% 30.13 in 10.0 mi Calm Calm - N/A   Overcast
11:53 AM 55.9 °F - 39.0 °F 53% 30.08 in 10.0 mi Calm Calm - N/A   Overcast
12:53 PM 57.9 °F - 41.0 °F 53% 30.04 in 10.0 mi SSE 4.6 mph - N/A   Mostly Cloudy
1:53 PM 59.0 °F - 42.1 °F 53% 30.01 in 10.0 mi ESE 3.5 mph - N/A   Scattered Clouds
2:53 PM 57.0 °F - 42.1 °F 57% 30.00 in 10.0 mi SE 6.9 mph - N/A   Overcast
3:53 PM 55.9 °F - 42.1 °F 60% 29.99 in 10.0 mi SE 6.9 mph - N/A   Overcast
4:53 PM 53.1 °F - 42.1 °F 66% 29.99 in 10.0 mi SSE 6.9 mph - N/A   Overcast
5:53 PM 52.0 °F - 41.0 °F 66% 29.99 in 10.0 mi SE 3.5 mph - N/A   Mostly Cloudy
6:53 PM 46.9 °F - 39.0 °F 74% 29.98 in 10.0 mi SSE 3.5 mph - N/A   Clear
7:53 PM 46.0 °F - 39.9 °F 79% 29.97 in 10.0 mi Calm Calm - N/A   Clear
8:53 PM 41.0 °F - 36.0 °F 82% 29.96 in 5.0 mi Calm Calm - N/A   Haze
9:53 PM 39.9 °F - 35.1 °F 83% 29.95 in 4.0 mi Calm Calm - N/A   Haze
10:34 PM 39.0 °F - 35.1 °F 86% 29.93 in 2.5 mi Calm Calm - N/A   Partly Cloudy
10:39 PM 39.0 °F - 34.0 °F 82% 29.93 in 1.0 mi Calm Calm - N/A   Haze
10:42 PM 39.0 °F - 35.1 °F 86% 29.93 in 0.5 mi Calm Calm - N/A Fog Fog
10:51 PM 39.2 °F - 33.8 °F 81% 29.92 in 1.5 mi Calm Calm - N/A   Haze
10:53 PM 39.0 °F - 34.0 °F 82% 29.93 in 3.0 mi Calm Calm - N/A   Haze
10:56 PM 39.0 °F - 34.0 °F 82% 29.92 in 1.8 mi Calm Calm - N/A   Haze
11:05 PM 39.0 °F - 35.1 °F 86% 29.92 in 0.5 mi Calm Calm - N/A Fog Fog
11:18 PM 39.9 °F - 35.1 °F 83% 29.91 in 1.5 mi Calm Calm - N/A   Haze
11:26 PM 39.0 °F - 35.1 °F 86% 29.91 in 3.0 mi Calm Calm - N/A   Mostly Cloudy
11:53 PM 39.0 °F 36.8 °F 34.0 °F 82% 29.91 in 2.5 mi North 3.5 mph - N/A   Haze
11:59 PM 39.0 °F - 34.0 °F 82% 29.90 in 0.8 mi Calm Calm - N/A   Haze